EW8530 Weather Reports


time (UTC)temp
F
wind
direction
speed
knots
gust
knots
rain 1hr
in
rain 24hr
in
rain mn
in
humidity
%
barometer
mb
20260509224140 47 124 0.0 3.5 0.00 0.04 0.00 83 1020.8
20260509223643 47 124 0.0 3.5 0.00 0.04 0.00 84 1020.8
20260509223137 46 122 0.0 3.5 0.00 0.04 0.00 84 1020.8
20260509222638 46 116 0.0 2.6 0.00 0.04 0.00 85 1020.9
20260509222134 46 110 0.0 2.6 0.00 0.04 0.00 85 1020.8
20260509221637 46 101 0.0 2.6 0.00 0.04 0.00 85 1020.9
20260509221139 46 91 0.0 3.5 0.00 0.04 0.00 85 1020.9
20260509220642 46 115 0.9 3.5 0.00 0.04 0.00 85 1020.9
20260509220144 47 151 0.9 4.3 0.00 0.04 0.00 85 1020.9
20260509215657 47 123 0.9 4.3 0.00 0.04 0.01 84 1021.0
20260509215139 47 317 0.0 2.6 0.00 0.04 0.01 84 1021.1
20260509214636 47 346 0.9 3.5 0.00 0.04 0.01 84 1021.1
20260509214137 47 100 0.9 3.5 0.00 0.04 0.01 84 1021.1
20260509213638 47 64 0.9 3.5 0.00 0.04 0.01 84 1021.1
20260509213137 47 16 0.9 3.5 0.00 0.04 0.01 84 1021.2
20260509212639 47 101 0.0 3.5 0.00 0.04 0.01 84 1021.1
20260509212141 47 335 0.9 2.6 0.00 0.04 0.01 84 1021.2
20260509211647 47 100 0.0 2.6 0.00 0.04 0.01 84 1021.2
20260509211131 47 83 0.0 2.6 0.00 0.04 0.01 84 1021.2
20260509210632 47 93 0.9 2.6 0.00 0.04 0.01 84 1021.3
20260509210137 47 353 0.9 6.1 0.00 0.04 0.01 84 1021.3
20260509205632 47 328 0.9 6.1 0.00 0.04 0.01 84 1021.3
20260509205134 47 346 0.0 3.5 0.00 0.04 0.01 84 1021.3
20260509204631 47 21 0.9 2.6 0.00 0.04 0.01 83 1021.4
20260509204136 47 85 0.0 3.5 0.00 0.04 0.01 83 1021.4
20260509203638 48 335 0.9 3.5 0.00 0.04 0.01 83 1021.4
20260509203141 48 132 0.0 2.6 0.00 0.04 0.01 83 1021.5
20260509202632 48 349 0.0 3.5 0.00 0.04 0.01 82 1021.6
20260509202137 48 358 0.0 3.5 0.00 0.04 0.01 82 1021.5
20260509201633 48 92 0.0 0.9 0.00 0.04 0.01 81 1021.6
20260509201128 48 120 0.0 0.9 0.00 0.04 0.01 81 1021.6
20260509200633 49 120 0.0 0.9 0.00 0.04 0.01 80 1021.6
20260509200126 49 121 0.0 0.9 0.00 0.04 0.01 80 1021.8
20260509195628 49 103 0.0 0.9 0.00 0.04 0.01 80 1021.8
20260509195139 49 122 0.0 0.9 0.00 0.04 0.01 79 1021.7
20260509194641 50 95 0.0 0.9 0.00 0.04 0.01 78 1021.8
20260509194137 50 95 0.0 2.6 0.00 0.04 0.01 78 1021.8
20260509193638 50 128 0.0 2.6 0.00 0.04 0.01 78 1021.9
20260509193132 50 123 0.0 1.7 0.00 0.04 0.01 77 1021.9
20260509192634 50 45 0.9 1.7 0.00 0.04 0.01 77 1021.9
20260509192143 51 60 0.0 1.7 0.00 0.04 0.01 76 1021.9
20260509191643 51 110 0.0 0.9 0.00 0.04 0.01 76 1022.0
20260509191133 51 112 0.0 0.9 0.00 0.04 0.01 75 1022.0
20260509190629 52 85 0.0 3.5 0.00 0.04 0.01 74 1022.0
20260509190134 52 61 0.0 3.5 0.00 0.04 0.01 73 1021.9
20260509185643 52 35 0.9 2.6 0.00 0.04 0.01 73 1022.0
20260509185130 53 105 0.0 2.6 0.00 0.04 0.01 73 1021.9
20260509184645 53 77 0.0 2.6 0.00 0.04 0.01 72 1021.8
20260509184131 53 37 0.9 2.6 0.00 0.04 0.01 72 1021.8
20260509183636 53 109 0.0 3.5 0.00 0.04 0.01 71 1021.8
20260509183131 53 44 0.9 5.2 0.00 0.04 0.01 71 1021.9
20260509182636 54 9 0.9 5.2 0.00 0.04 0.01 71 1021.9
20260509182133 54 146 1.7 4.3 0.00 0.04 0.01 70 1021.9
20260509181631 54 353 1.7 6.1 0.00 0.04 0.01 69 1021.8
20260509181133 54 343 0.9 6.1 0.00 0.04 0.01 69 1021.9
20260509180633 55 33 1.7 7.8 0.00 0.04 0.01 68 1021.9
20260509180133 55 339 2.6 7.8 0.00 0.04 0.01 68 1022.0
20260509175635 55 14 2.6 7.8 0.00 0.04 0.01 67 1021.9
20260509175141 55 350 1.7 6.1 0.00 0.04 0.01 68 1021.9
20260509174644 55 4 1.7 4.3 0.00 0.04 0.01 68 1021.8
20260509174127 55 353 0.9 7.0 0.00 0.04 0.01 68 1021.7
20260509173642 55 13 1.7 7.0 0.00 0.04 0.01 68 1021.8
20260509173142 55 342 0.9 5.2 0.00 0.04 0.01 68 1021.7
20260509172641 55 325 2.6 6.1 0.00 0.04 0.01 67 1021.8
20260509172141 55 253 2.6 6.1 0.00 0.04 0.01 68 1021.8
20260509171642 55 355 1.7 6.1 0.00 0.04 0.01 68 1021.8
20260509171128 55 343 1.7 6.1 0.00 0.04 0.01 68 1021.8
20260509170645 55 352 0.9 4.3 0.00 0.04 0.01 68 1021.8
20260509170128 55 44 0.9 4.3 0.00 0.04 0.01 68 1021.7
20260509165627 55 316 0.0 2.6 0.00 0.04 0.01 68 1021.7
20260509165148 55 350 0.0 2.6 0.00 0.04 0.01 68 1021.6
20260509164707 55 105 0.0 0.9 0.00 0.04 0.01 68 1021.5
20260509164128 55 127 0.0 1.7 0.00 0.04 0.01 69 1021.5
20260509163627 54 350 0.0 1.7 0.00 0.04 0.01 69 1021.4
20260509163135 54 124 0.0 1.7 0.00 0.04 0.01 70 1021.4
20260509162637 54 135 0.0 0.9 0.00 0.04 0.01 71 1021.4
20260509162138 53 168 0.0 0.9 0.00 0.04 0.01 72 1021.3
20260509161641 53 168 0.0 1.7 0.00 0.04 0.01 72 1021.3
20260509161142 53 168 0.0 0.0 0.00 0.04 0.01 74 1021.3
20260509160626 54 227 0.0 0.0 0.00 0.04 0.01 72 1021.2
20260509160142 55 227 0.0 0.0 0.00 0.04 0.01 70 1021.1
20260509155640 55 227 0.0 0.0 0.00 0.04 0.01 69 1021.1
20260509155130 56 227 0.0 0.0 0.00 0.04 0.01 67 1021.1
20260509154634 57 227 0.0 0.0 0.00 0.04 0.01 66 1021.0
20260509154130 58 227 0.0 0.0 0.00 0.04 0.01 64 1020.9
20260509153626 58 227 0.0 0.0 0.00 0.04 0.01 63 1020.9
20260509153128 59 227 0.0 0.0 0.00 0.04 0.01 62 1020.9
20260509152637 60 227 0.0 0.0 0.00 0.04 0.01 61 1020.9
20260509152141 60 227 0.0 0.0 0.00 0.04 0.01 61 1020.9
20260509151637 61 227 0.0 0.0 0.00 0.04 0.01 58 1020.9
20260509151133 62 227 0.0 2.6 0.00 0.04 0.01 57 1020.9
20260509150634 63 227 0.0 2.6 0.00 0.04 0.01 55 1020.9
20260509150131 63 258 0.9 3.5 0.00 0.04 0.01 54 1020.9
20260509145633 64 289 0.9 4.3 0.00 0.04 0.01 53 1020.9
20260509145136 64 277 0.9 5.2 0.00 0.04 0.01 52 1020.8
20260509144640 64 277 0.9 5.2 0.00 0.04 0.01 52 1020.9
20260509144131 64 256 0.9 5.2 0.00 0.04 0.01 52 1020.8
20260509143656 64 232 1.7 6.1 0.00 0.04 0.01 51 1020.7
20260509143135 64 280 3.5 7.0 0.00 0.04 0.01 50 1020.8
20260509142627 65 269 3.5 12.2 0.00 0.04 0.01 49 1020.7
20260509142128 65 293 5.2 12.2 0.00 0.04 0.01 48 1020.7
20260509141632 65 293 4.3 9.6 0.00 0.04 0.01 49 1020.5
20260509141134 66 282 5.2 9.6 0.00 0.04 0.01 48 1020.5
20260509140633 66 256 4.3 12.2 0.00 0.04 0.01 48 1020.6
20260509140132 66 280 3.5 12.2 0.00 0.04 0.01 47 1020.7
20260509135632 66 272 6.1 11.3 0.00 0.04 0.01 47 1020.6
20260509135153 66 290 4.3 12.2 0.00 0.04 0.01 47 1020.5
20260509134642 66 304 4.3 12.2 0.00 0.04 0.01 47 1020.6
20260509134140 66 284 7.0 12.2 0.00 0.04 0.01 47 1020.6
20260509133634 66 282 4.3 12.2 0.00 0.04 0.01 48 1020.7
20260509133133 66 296 4.3 13.9 0.00 0.04 0.01 47 1020.8
20260509132632 66 296 8.7 13.0 0.00 0.04 0.01 47 1020.7
20260509132137 66 299 7.0 13.9 0.00 0.04 0.01 47 1020.7
20260509131701 66 353 8.7 13.9 0.00 0.04 0.01 46 1020.7
20260509131143 66 284 2.6 10.4 0.00 0.04 0.01 48 1020.7
20260509130643 66 6 6.1 10.4 0.00 0.04 0.01 47 1020.7
20260509130131 66 30 3.5 9.6 0.00 0.04 0.01 47 1020.8
20260509125632 66 279 4.3 9.6 0.00 0.04 0.01 48 1020.8
20260509125132 66 258 4.3 9.6 0.00 0.04 0.01 47 1020.7
20260509124635 66 269 4.3 12.2 0.00 0.04 0.01 47 1020.8
20260509124142 66 296 6.1 12.2 0.00 0.04 0.01 47 1020.9
20260509123642 66 322 5.2 12.2 0.00 0.04 0.01 48 1020.8
20260509123146 66 270 6.1 11.3 0.00 0.04 0.01 46 1020.8
20260509122641 66 306 4.3 13.0 0.00 0.04 0.01 47 1020.8
20260509122135 66 324 6.1 13.0 0.00 0.04 0.01 47 1020.8
20260509121631 66 317 3.5 9.6 0.00 0.04 0.01 48 1020.9
20260509121132 66 287 4.3 9.6 0.00 0.04 0.01 47 1020.9
20260509120635 66 165 2.6 10.4 0.00 0.04 0.01 48 1020.9
20260509120135 66 308 5.2 11.3 0.00 0.04 0.01 47 1020.9
20260509115637 66 347 4.3 13.9 0.00 0.04 0.01 48 1020.9
20260509115137 65 272 3.5 13.9 0.00 0.04 0.01 48 1020.8
20260509114631 65 314 3.5 11.3 0.00 0.04 0.01 47 1020.9
20260509114132 66 249 6.1 10.4 0.00 0.04 0.01 47 1021.2
20260509113631 65 303 3.5 10.4 0.00 0.04 0.01 48 1021.1
20260509113133 65 275 1.7 11.3 0.00 0.04 0.01 48 1021.1
20260509112632 65 282 6.1 12.2 0.00 0.04 0.01 48 1021.3
20260509112157 65 277 6.1 12.2 0.00 0.04 0.01 48 1021.3
20260509111640 65 293 4.3 15.6 0.00 0.04 0.01 50 1021.3
20260509111138 65 294 5.2 15.6 0.00 0.04 0.01 49 1021.5
20260509110637 65 32 5.2 13.9 0.00 0.04 0.01 50 1021.5
20260509110201 65 311 5.2 13.9 0.00 0.04 0.01 50 1021.6
20260509105627 65 348 1.7 11.3 0.00 0.04 0.01 49 1021.7
20260509105158 65 293 5.2 14.8 0.00 0.04 0.01 48 1021.8
20260509104628 65 296 7.0 14.8 0.00 0.04 0.01 49 1021.8
20260509104133 65 307 5.2 11.3 0.00 0.04 0.01 50 1022.0
20260509103655 65 263 5.2 9.6 0.00 0.04 0.01 48 1022.0
20260509103144 65 331 3.5 11.3 0.00 0.04 0.01 49 1022.1
20260509102644 65 272 6.1 11.3 0.00 0.04 0.01 49 1022.2
20260509102133 64 262 5.2 13.9 0.00 0.04 0.01 49 1022.2
20260509101635 64 324 5.2 13.9 0.00 0.04 0.01 49 1022.3
20260509101126 64 317 6.1 13.9 0.00 0.04 0.01 49 1022.5
20260509100629 64 286 7.8 13.9 0.00 0.04 0.01 49 1022.5
20260509100205 64 258 6.1 14.8 0.00 0.04 0.01 49 1022.6
20260509095626 64 359 8.7 14.8 0.00 0.04 0.01 48 1022.7
20260509095127 64 312 3.5 13.9 0.00 0.04 0.01 51 1022.8
20260509094630 64 277 7.8 13.9 0.00 0.04 0.01 50 1022.8
20260509094151 63 47 7.0 14.8 0.00 0.04 0.01 51 1022.8
20260509093627 63 294 7.8 12.2 0.00 0.04 0.01 52 1022.9
20260509093132 63 275 4.3 12.2 0.00 0.04 0.01 55 1023.0
20260509092636 63 291 4.3 12.2 0.00 0.04 0.01 54 1022.9
20260509092137 62 293 6.1 13.0 0.00 0.04 0.01 53 1022.9
20260509091637 62 227 6.1 13.0 0.00 0.04 0.01 54 1023.1
20260509091133 62 269 7.8 13.0 0.00 0.04 0.01 52 1023.1
20260509090626 62 300 5.2 15.6 0.00 0.04 0.01 56 1023.2
20260509085633 62 262 6.1 13.0 0.00 0.04 0.01 55 1023.4
20260509085131 62 313 5.2 11.3 0.00 0.04 0.01 56 1023.6
20260509084654 62 339 4.3 9.6 0.00 0.04 0.01 56 1023.6
20260509084150 62 324 3.5 10.4 0.00 0.04 0.01 56 1023.6
20260509083652 61 258 7.0 10.4 0.00 0.04 0.01 54 1023.6
20260509083142 61 313 4.3 11.3 0.00 0.04 0.01 57 1023.7
20260509082643 61 277 4.3 10.4 0.00 0.04 0.01 57 1023.8
20260509082145 61 305 2.6 10.4 0.00 0.04 0.01 57 1023.8
20260509081628 60 301 2.6 12.2 0.00 0.04 0.01 58 1023.9
20260509081138 60 305 6.1 12.2 0.00 0.04 0.01 57 1023.9
20260509080641 60 28 6.1 12.2 0.00 0.04 0.01 57 1024.0
20260509080127 60 336 4.3 9.6 0.00 0.04 0.01 58 1024.0
20260509075645 59 272 3.5 9.6 0.00 0.04 0.01 59 1024.1
20260509074635 59 26 3.5 12.2 0.04 0.04 0.01 61 1024.1
20260509074131 58 6 3.5 12.2 0.04 0.04 0.01 63 1024.0
20260509073635 58 10 4.3 11.3 0.04 0.04 0.01 63 1024.0
20260509073156 58 293 3.5 11.3 0.04 0.04 0.01 63 1023.9
20260509072650 58 286 3.5 9.6 0.04 0.04 0.01 63 1023.9
20260509072131 57 277 3.5 9.6 0.04 0.04 0.01 65 1023.9
20260509071633 57 303 1.7 9.6 0.04 0.04 0.01 67 1023.9
20260509071148 56 28 3.5 9.6 0.04 0.04 0.01 67 1023.9
20260509070705 56 35 0.9 7.0 0.04 0.04 0.01 69 1023.9
20260509070140 55 339 1.7 7.0 0.04 0.04 0.01 69 1023.9
20260509065632 55 130 3.5 8.7 0.04 0.04 0.01 69 1023.8
20260509065131 54 324 4.3 10.4 0.04 0.04 0.01 70 1023.7
20260509064645 54 342 2.6 10.4 0.00 0.00 0.00 72 1023.7
20260509064205 53 45 0.9 7.0 0.00 0.00 0.00 74 1023.7
20260509063707 53 7 1.7 7.0 0.00 0.00 0.00 74 1023.7
20260509063131 52 153 0.9 8.7 0.00 0.00 0.00 75 1023.6
20260509062633 51 140 2.6 8.7 0.00 0.00 0.00 75 1023.5
20260509062140 51 8 0.9 4.3 0.00 0.00 0.00 77 1023.5
20260509061641 50 120 0.9 3.5 0.00 0.00 0.00 79 1023.4
20260509061131 49 353 0.9 5.2 0.00 0.00 0.00 81 1023.4
20260509060702 48 347 0.9 6.1 0.00 0.00 0.00 81 1023.4
20260509060133 47 266 0.9 6.1 0.00 0.00 0.00 81 1023.3
20260509055650 47 320 1.7 6.1 0.00 0.00 0.00 82 1023.2
20260509055152 46 211 2.6 6.1 0.00 0.00 0.00 84 1023.2
20260509054632 46 234 1.7 5.2 0.00 0.00 0.00 86 1023.2
20260509054132 45 358 0.0 3.5 0.00 0.00 0.00 88 1023.2
20260509053635 44 42 0.9 3.5 0.00 0.00 0.00 90 1023.3
20260509053137 43 163 0.0 2.6 0.00 0.00 0.00 92 1023.3
20260509052634 43 173 0.0 0.0 0.00 0.00 0.00 92 1023.3
20260509052136 42 173 0.0 0.0 0.00 0.00 0.00 93 1023.3
20260509051637 41 173 0.0 0.0 0.00 0.00 0.00 94 1023.2
20260509051154 40 173 0.0 0.0 0.00 0.00 0.00 95 1023.1
20260509050636 39 174 0.0 0.0 0.00 0.00 0.00 96 1023.1
20260509050142 38 173 0.0 0.0 0.00 0.00 0.00 97 1023.0
20260509045631 36 173 0.0 0.0 0.00 0.00 0.00 96 1023.0
20260509045135 36 173 0.0 0.0 0.00 0.00 0.00 96 1023.0
20260509044635 36 173 0.0 0.0 0.00 0.00 0.00 96 1023.0
20260509044140 36 173 0.0 0.0 0.00 0.00 0.00 96 1023.0
20260509043640 36 173 0.0 0.0 0.00 0.00 0.00 96 1023.0
20260509043144 35 173 0.0 0.0 0.00 0.00 0.00 96 1023.0
20260509042707 35 174 0.0 0.0 0.00 0.00 0.00 96 1023.0
20260509042143 35 173 0.0 0.0 0.00 0.00 0.00 96 1023.0
20260509041638 36 173 0.0 0.0 0.00 0.00 0.00 96 1022.9
20260509041134 36 173 0.0 0.0 0.00 0.00 0.00 96 1022.8
20260509040634 36 173 0.0 0.0 0.00 0.00 0.00 96 1022.8
20260509040159 36 173 0.0 0.0 0.00 0.00 0.00 96 1022.8
20260509035630 36 173 0.0 0.0 0.00 0.00 0.00 96 1022.8
20260509035145 35 173 0.0 0.0 0.00 0.00 0.00 96 1022.8
20260509034626 35 173 0.0 0.0 0.00 0.00 0.00 96 1022.9
20260509034129 35 173 0.0 0.0 0.00 0.00 0.00 96 1022.8
20260509033638 35 174 0.0 0.0 0.00 0.00 0.00 96 1022.9
20260509033140 35 174 0.0 0.0 0.00 0.00 0.00 96 1022.8
20260509032638 36 173 0.0 0.0 0.00 0.00 0.00 96 1023.0
20260509032134 36 174 0.0 0.0 0.00 0.00 0.00 96 1023.0
20260509031635 36 174 0.0 0.0 0.00 0.00 0.00 96 1022.8
20260509031149 36 174 0.0 0.0 0.00 0.00 0.00 96 1022.7
20260509030628 36 173 0.0 0.0 0.00 0.00 0.00 96 1022.7
20260509030149 36 173 0.0 0.0 0.00 0.00 0.00 96 1022.7
20260509025628 36 174 0.0 0.0 0.00 0.00 0.00 96 1022.7
20260509025127 36 174 0.0 0.0 0.00 0.00 0.00 96 1022.6
20260509024638 36 174 0.0 0.0 0.00 0.00 0.00 96 1022.6
20260509024127 36 173 0.0 0.0 0.00 0.00 0.00 96 1022.5
20260509023634 35 173 0.0 0.0 0.00 0.00 0.00 96 1022.5
20260509023127 35 173 0.0 0.0 0.00 0.00 0.00 96 1022.5
20260509022638 35 174 0.0 0.0 0.00 0.00 0.00 96 1022.3
20260509022125 35 173 0.0 0.0 0.00 0.00 0.00 96 1022.4
20260509021643 35 173 0.0 0.0 0.00 0.00 0.00 96 1022.4
20260509021144 35 173 0.0 0.0 0.00 0.00 0.00 96 1022.4
20260509020633 35 173 0.0 0.0 0.00 0.00 0.00 96 1022.4
20260509020132 35 173 0.0 0.0 0.00 0.00 0.00 96 1022.5
20260509015127 35 173 0.0 0.0 0.00 0.00 0.00 96 1022.4
20260509014630 36 173 0.0 0.0 0.00 0.00 0.00 96 1022.4
20260509014141 36 173 0.0 0.0 0.00 0.00 0.00 96 1022.3
20260509013633 36 174 0.0 0.0 0.00 0.00 0.00 96 1022.3
20260509013215 36 174 0.0 0.0 0.00 0.00 0.00 96 1022.4
20260509012636 36 173 0.0 0.0 0.00 0.00 0.00 96 1022.4
20260509012144 36 173 0.0 0.0 0.00 0.00 0.00 96 1022.3
20260509011637 36 173 0.0 0.0 0.00 0.00 0.00 96 1022.3
20260509011146 36 173 0.0 0.0 0.00 0.00 0.00 96 1022.4
20260509010650 36 174 0.0 0.0 0.00 0.00 0.00 96 1022.4
20260509010131 36 173 0.0 0.0 0.00 0.00 0.00 96 1022.4
20260509005631 36 173 0.0 0.0 0.00 0.00 0.00 96 1022.4
20260509005129 36 173 0.0 0.0 0.00 0.00 0.00 96 1022.5
20260509004630 36 174 0.0 0.0 0.00 0.00 0.00 96 1022.6
20260509004133 36 173 0.0 0.0 0.00 0.00 0.00 96 1022.5
20260509003148 36 173 0.0 0.0 0.00 0.00 0.00 96 1022.6
20260509002643 36 173 0.0 0.0 0.00 0.00 0.00 96 1022.6
20260509002151 36 174 0.0 0.0 0.00 0.00 0.00 96 1022.6
20260509001659 36 174 0.0 0.0 0.00 0.00 0.00 96 1022.7
20260509001133 36 173 0.0 0.0 0.00 0.00 0.00 95 1022.7
20260509000652 37 173 0.0 0.0 0.00 0.00 0.00 95 1022.7
20260509000146 37 173 0.0 0.0 0.00 0.00 0.00 95 1022.7
20260508235633 37 173 0.0 0.0 0.00 0.00 0.00 95 1022.7
20260508235134 37 173 0.0 0.0 0.00 0.00 0.00 95 1022.7
20260508234654 37 173 0.0 0.0 0.00 0.00 0.00 95 1022.6
20260508234136 37 173 0.0 0.0 0.00 0.00 0.00 95 1022.6
20260508233637 37 173 0.0 0.0 0.00 0.00 0.00 95 1022.7
20260508233143 37 173 0.0 0.0 0.00 0.00 0.00 95 1022.7
20260508232659 37 173 0.0 0.0 0.00 0.00 0.00 95 1022.7
20260508232143 37 173 0.0 0.0 0.00 0.00 0.00 95 1022.7
20260508231638 37 173 0.0 0.0 0.00 0.00 0.00 95 1022.6
20260508231140 37 173 0.0 0.0 0.00 0.00 0.00 95 1022.7
20260508230637 38 173 0.0 0.0 0.00 0.00 0.00 95 1022.7
20260508230135 38 173 0.0 0.0 0.00 0.00 0.00 95 1022.6
20260508225637 38 173 0.0 0.0 0.00 0.00 0.00 95 1022.5
20260508225134 38 173 0.0 0.0 0.00 0.00 0.00 94 1022.5
20260508224637 38 173 0.0 0.0 0.00 0.00 0.00 94 1022.6